Regional Weather Roundup
Issued by NWS Grand Forks, ND

Home | Current Version | Previous Version | Graphics & Text | Print | Product List | Glossary On
Versions: 1 2 3 4 5 6 7 8 9 10 11 12 13 14 15 16 17 18 19 20 21 22 23 24 25 26 27 28 29 30 31 32 33 34 35 36 37 38 39 40 41 42 43 44 45 46 47 48 49 50
000
ASUS43 KFGF 300631
RWRFGF
PRAIRIE TO PINES  WEATHER ROUNDUP
NATIONAL WEATHER SERVICE EASTERN NORTH DAKOTA/GRAND FORKS ND
100 AM CDT SAT AUG 30 2014

 **SATELLITE DATA USED TO AUGMENT SKY COVER AT AUTOMATED STATIONS**
 *****  WEATHER ACROSS EASTERN NORTH DAKOTA  *****

CITY           SKY/WX    TMP DP  RH WIND       PRES   REMARKS
GRAND FORKS    FAIR      56  52  86 N9        29.91S
6HR MIN TEMP:  56; 6HR MAX TEMP:  63;

GRAND FRKS AFB FAIR      56  55  99 N7        29.93S
GRAND FRKS NWS   N/A     55 N/A N/A N7          N/A
DEVILS LAKE    FAIR      52  45  76 NE5       29.95S
6HR MIN TEMP:  52; 6HR MAX TEMP:  64;

FARGO          CLOUDY    62  57  83 N16G24    29.87S
WAHPETON ARPT  CLOUDY    61  55  82 N10       29.86R
$$

 ***** WEATHER ACROSS CENTRAL AND WESTERN NORTH DAKOTA  *****

CITY           SKY/WX    TMP DP  RH WIND       PRES   REMARKS
BISMARCK       CLEAR     53  51  93 CALM      29.99S
6HR MIN TEMP:  53; 6HR MAX TEMP:  69;

MINOT          FAIR      51  47  86 CALM      29.96S
6HR MIN TEMP:  51; 6HR MAX TEMP:  68;

JAMESTOWN      CLOUDY    60  55  83 N9        29.95R
6HR MIN TEMP:  60; 6HR MAX TEMP:  62;

MINOT AFB      FAIR      49  48  98 SW5       29.96S
GARRISON         N/A     52  50  93 CALM      29.98S
WILLISTON      CLEAR     52  48  86 CALM      29.96S
6HR MIN TEMP:  50; 6HR MAX TEMP:  74;

DICKINSON      CLEAR     52  49  89 SE8       29.98S
6HR MIN TEMP:  52; 6HR MAX TEMP:  68;

HETTINGER      CLEAR     54  51  90 E6        30.01S
6HR MIN TEMP:  53; 6HR MAX TEMP:  69;

$$

 *****  OTHER AIRPORT OBSERVATIONS IN OUR AREA  *****

CITY           SKY/WX    TMP DP  RH WIND       PRES   REMARKS
WALHALLA       FAIR      48  48 100 NW5       29.97S
GRAFTON AIRPOR FAIR      54  54 100 N10       29.94R
VALLEY CITY AR CLOUDY    57  57 100 N13       29.94R
CANDO          FOG       46  46 100 N6        29.98S VSB 1/2
CAVALIER APRT  FAIR      50  48  93 NW7       29.96S
GWINNER        CLOUDY    61  59  94 N13       29.92S
SHEYENNE NWR     N/A     61  57  87 N8        29.95S
ROLLA          FAIR      43  43 100 CALM      30.00S
 ***** THE ABOVE OBSERVATIONS ARE NON NWS ARE NOT QUALITY
       CONTROLLED AND MAY MIS-REPORT RAIN FOR SNOW...
$$

  *****  WEATHER ACROSS NORTHERN MINNESOTA  *****

CITY           SKY/WX    TMP DP  RH WIND       PRES   REMARKS
FLAG ISLAND    FAIR      61  55  82 N15       29.90R
WARROAD        FAIR      54  48  82 NW7       29.91S
ROSEAU         FAIR      52  46  82 N6        29.92R
HALLOCK        FAIR      54  48  82 N9        29.93S
THF RVR FALLS  CLOUDY    57  52  82 N13       29.91R
6HR MIN TEMP:  57; 6HR MAX TEMP:  64;

BAUDETTE       FAIR      58  56  93 N10       29.87S
6HR MIN TEMP:  58; 6HR MAX TEMP:  66; 6HR PCP: TRACE;

WASKISH        CLOUDY    57  55  94 N6        29.87R
CROOKSTON      MOCLDY    57  54  88 N12       29.91R
$$
  *****  WEATHER ACROSS CENTRAL AND WEST MINNESOTA  *****

CITY           SKY/WX    TMP DP  RH WIND       PRES   REMARKS
FOSSTON        CLOUDY    57  55  94 N9        29.89R
BEMIDJI        CLOUDY    59  57  93 N10       29.86R
PARK RAPIDS    CLOUDY    66  63  90 N10       29.83R
6HR MIN TEMP:  64; 6HR MAX TEMP:  71;

ELBOW LAKE     CLOUDY    63  62  97 NW9       29.84R
6HR MIN TEMP:  63; 6HR MAX TEMP:  69;

WADENA         CLOUDY    63  63 100 NW5       29.83R
DETROIT LAKES  CLOUDY    61  61 100 NW10      29.87R
MOORHEAD       CLOUDY    61  61 100 N10       29.88R
FERGUS FALLS   CLOUDY    63  61  94 N10       29.84S
MORRIS MN      CLOUDY    64  64 100 NW16      29.83R
STAPLES        CLOUDY    64  63  94 N5        29.82R
$$
  *****  WEATHER ELSEWHERE ACROSS MINNESOTA  *****

CITY           SKY/WX    TMP DP  RH WIND       PRES   REMARKS
DULUTH         CLOUDY    64  61  90 NE3       29.80S
6HR MIN TEMP:  62; 6HR MAX TEMP:  64; 6HR PCP: TRACE;

INTRNTL FALLS  CLOUDY    59  55  87 N10       29.84S
6HR MIN TEMP:  59; 6HR MAX TEMP:  68; 6HR PCP:  0.01;

ELY            MOCLDY    57  55  94 CALM      29.82R
CLOQUET        CLOUDY    63  61  94 NW3       29.80S FOG
WHEATON        CLOUDY    61  57  88 N14       29.88R
BRAINERD       FOG       62  62 100 NE5       29.81S VSB 1/2
6HR MIN TEMP:  63; 6HR MAX TEMP:  69; 6HR PCP: TRACE;

HIBBING        FOG       61  59  93 W3        29.82R VSB 1/4
6HR MIN TEMP:  60; 6HR MAX TEMP:  66;

ALEXANDRIA     CLOUDY    66  64  93 N5        29.84S
6HR MIN TEMP:  65; 6HR MAX TEMP:  70;

SAINT CLOUD    CLOUDY    70  66  87 E3        29.79S
6HR MIN TEMP:  69; 6HR MAX TEMP:  73;

MINNEAPOLIS    HVY RAIN  68  67  96 CALM      29.77S FOG
6HR MIN TEMP:  68; 6HR MAX TEMP:  72; 6HR PCP:  0.11;

$$

  *****  WEATHER ACROSS SOUTH DAKOTA  *****

CITY           SKY/WX    TMP DP  RH WIND       PRES   REMARKS
SIOUX FALLS    FAIR      67  64  90 NW9       29.83F
6HR MIN TEMP:  65; 6HR MAX TEMP:  69;

BROOKINGS      NOT AVBL
WATERTOWN      CLOUDY    63  61  93 N13       29.87S
6HR MIN TEMP:  63; 6HR MAX TEMP:  74;

HURON          MOCLDY    63  59  87 N12       29.90R
6HR MIN TEMP:  62; 6HR MAX TEMP:  77;

SISSETON         N/A     62  59  90 N14       29.86S
ABERDEEN       CLOUDY    59  56  89 N15       29.91S
6HR MIN TEMP:  59; 6HR MAX TEMP:  72;

MITCHELL       MOCLDY    63  61  93 NW13      29.90R
PIERRE         CLEAR     57  56  96 N6        29.96R
6HR MIN TEMP:  57; 6HR MAX TEMP:  73;

MOBRIDGE       CLEAR     53  52  96 N5        29.96S
RAPID CITY     CLEAR     55  51  86 E3        30.04S
6HR MIN TEMP:  54; 6HR MAX TEMP:  76;

$$

  *****  SOME WEATHER IN NEARBY STATES *****

CITY           SKY/WX    TMP DP  RH WIND       PRES   REMARKS
GLASGOW MT     CLEAR     57  52  83 E13       29.87F
6HR MIN TEMP:  57; 6HR MAX TEMP:  72;

GREAT FALLS MT PTCLDY    64  44  48 S9        29.78F
6HR MIN TEMP:  61; 6HR MAX TEMP:  81;

CHEYENNE WY    PTCLDY    53  48  83 W5        30.17F
6HR MIN TEMP:  52; 6HR MAX TEMP:  71;

SCOTTSBLUFF NE PTCLDY    59  56  89 E7        30.08F
6HR MIN TEMP:  59; 6HR MAX TEMP:  78;

OMAHA NE       FAIR      67  64  90 CALM      29.84R
6HR MIN TEMP:  67; 6HR MAX TEMP:  72;

DES MOINES IA  CLOUDY    69  67  93 SW9       29.80F
6HR MIN TEMP:  69; 6HR MAX TEMP:  72; 6HR PCP:  0.18;

DAVENPORT IA   FAIR      70  68  93 S12       29.83S
6HR MIN TEMP:  70; 6HR MAX TEMP:  81; 6HR PCP:  0.05;

CHICAGO IL     CLOUDY    75  67  76 S12       29.86S
6HR MIN TEMP:  74; 6HR MAX TEMP:  82; 6HR PCP:  0.08;

EAU CLAIRE WI  CLOUDY    67  66  97 W3        29.74F
6HR MIN TEMP:  67; 6HR MAX TEMP:  71; 6HR PCP:  0.55;

LA CROSSE WI   HVY RAIN  69  67  93 NE3       29.75F FOG
6HR MIN TEMP:  69; 6HR MAX TEMP:  76; 6HR PCP:  0.39;

$$

  *****  SOME NATIONAL WEATHER *****

CITY           SKY/WX    TMP DP  RH WIND       PRES   REMARKS
LA GUARDIA NY  FAIR      68  55  63 SE3       30.25S
6HR MIN TEMP:  68; 6HR MAX TEMP:  71;

RALEIGH NC     MOCLDY    74  69  85 E7        30.19R
6HR MIN TEMP:  74; 6HR MAX TEMP:  78;

ATLANTA GA     MOCLDY    77  62  59 S5        30.12S
6HR MIN TEMP:  77; 6HR MAX TEMP:  87;

NEW ORLEANS LA CLOUDY    78  73  84 SE7       30.00F
6HR MIN TEMP:  77; 6HR MAX TEMP:  79; 6HR PCP: TRACE;

OKLAHOMA CITY  FAIR      68  65  90 S3        29.93S
6HR MIN TEMP:  68; 6HR MAX TEMP:  82;

ALBUQUERQUE NM CLEAR     73  41  31 CALM      30.14S
6HR MIN TEMP:  70; 6HR MAX TEMP:  85;

SALT LAKE CITY MOCLDY    77  40  26 S10       29.95S
6HR MIN TEMP:  75; 6HR MAX TEMP:  88;

LOS ANGELES CA CLEAR     68  62  81 W6        29.83F
6HR MIN TEMP:  68; 6HR MAX TEMP:  73;




USA.gov is the U.S. government's official web portal to all federal, state and local government web resources and services.